| time (UTC) | temp C | wind direction | speed KPH | gust KPH | rain 1hr cm | rain 24hr cm | rain mn cm | humidity % | barometer mb |
| 20260507163003 | 12 | 90 | 1.6 | 6.4 | 0.00 | 0.00 | 0.00 | 77 | 1020.0 |
| 20260507161502 | 12 | 22 | 3.2 | 12.9 | 0.00 | 0.00 | 0.00 | 77 | 1020.0 |
| 20260507160103 | 12 | 355 | 4.8 | 9.7 | 0.00 | 0.00 | 0.00 | 78 | 1020.0 |
| 20260507154558 | 12 | 25 | 3.2 | 6.4 | 0.00 | 0.00 | 0.00 | 79 | 1020.1 |
| 20260507153057 | 11 | 14 | 4.8 | 9.7 | 0.00 | 0.00 | 0.00 | 83 | 1020.2 |
| 20260507151554 | 11 | 45 | 0.0 | 8.0 | 0.00 | 0.00 | 0.00 | 84 | 1020.2 |
| 20260507150053 | 11 | 40 | 3.2 | 8.0 | 0.00 | 0.00 | 0.00 | 84 | 1020.3 |
| 20260507144552 | 11 | 5 | 3.2 | 6.4 | 0.00 | 0.00 | 0.00 | 85 | 1020.2 |
| 20260507143051 | 11 | 37 | 3.2 | 6.4 | 0.00 | 0.00 | 0.00 | 86 | 1020.1 |
| 20260507141555 | 11 | 24 | 3.2 | 6.4 | 0.00 | 0.00 | 0.00 | 87 | 1020.0 |
| 20260507140107 | 11 | 317 | 1.6 | 4.8 | 0.00 | 0.00 | 0.00 | 87 | 1019.9 |
| 20260507134549 | 11 | 310 | 0.0 | 3.2 | 0.00 | 0.00 | 0.00 | 88 | 1019.8 |
| 20260507133049 | 11 | 310 | 0.0 | 3.2 | 0.00 | 0.00 | 0.00 | 88 | 1019.7 |
| 20260507131600 | 11 | 310 | 1.6 | 3.2 | 0.00 | 0.00 | 0.00 | 87 | 1019.7 |
| 20260507130052 | 11 | 309 | 0.0 | 3.2 | 0.00 | 0.00 | 0.00 | 87 | 1019.9 |
| 20260507124602 | 11 | 308 | 0.0 | 4.8 | 0.00 | 0.00 | 0.00 | 87 | 1019.9 |
| 20260507123055 | 11 | 308 | 0.0 | 3.2 | 0.00 | 0.00 | 0.00 | 87 | 1019.9 |
| 20260507121547 | 11 | 308 | 3.2 | 4.8 | 0.00 | 0.00 | 0.00 | 87 | 1019.9 |
| 20260507120045 | 11 | 308 | 0.0 | 3.2 | 0.00 | 0.00 | 0.00 | 86 | 1020.1 |
| 20260507114545 | 11 | 308 | 1.6 | 4.8 | 0.00 | 0.00 | 0.00 | 86 | 1020.2 |
| 20260507113043 | 11 | 308 | 1.6 | 4.8 | 0.00 | 0.00 | 0.00 | 86 | 1020.3 |
| 20260507111544 | 11 | 303 | 0.0 | 3.2 | 0.00 | 0.00 | 0.00 | 87 | 1020.3 |
| 20260507110039 | 11 | 304 | 0.0 | 3.2 | 0.00 | 0.00 | 0.00 | 86 | 1020.3 |
| 20260507104540 | 11 | 305 | 0.0 | 4.8 | 0.00 | 0.00 | 0.00 | 86 | 1020.4 |
| 20260507103037 | 11 | 315 | 1.6 | 4.8 | 0.00 | 0.00 | 0.00 | 86 | 1020.5 |
| 20260507101544 | 11 | 319 | 1.6 | 8.0 | 0.00 | 0.00 | 0.00 | 86 | 1020.6 |
| 20260507100036 | 11 | 289 | 3.2 | 8.0 | 0.00 | 0.00 | 0.00 | 86 | 1020.6 |
| 20260507094533 | 11 | 321 | 1.6 | 8.0 | 0.00 | 0.00 | 0.00 | 85 | 1020.7 |
| 20260507093038 | 11 | 277 | 3.2 | 9.7 | 0.00 | 0.00 | 0.00 | 85 | 1020.8 |
| 20260507091530 | 11 | 242 | 1.6 | 8.0 | 0.00 | 0.00 | 0.00 | 85 | 1020.9 |
| 20260507090032 | 11 | 266 | 0.0 | 6.4 | 0.00 | 0.00 | 0.00 | 85 | 1021.0 |
| 20260507084528 | 11 | 317 | 3.2 | 8.0 | 0.00 | 0.00 | 0.00 | 85 | 1021.0 |
| 20260507083036 | 11 | 290 | 1.6 | 6.4 | 0.00 | 0.00 | 0.00 | 85 | 1020.9 |
| 20260507081529 | 11 | 250 | 1.6 | 8.0 | 0.00 | 0.00 | 0.00 | 85 | 1020.9 |
| 20260507080025 | 11 | 275 | 3.2 | 8.0 | 0.00 | 0.00 | 0.00 | 85 | 1020.9 |
| 20260507074528 | 11 | 266 | 1.6 | 12.9 | 0.00 | 0.00 | 0.00 | 85 | 1020.9 |
| 20260507073023 | 11 | 257 | 4.8 | 19.3 | 0.00 | 0.00 | 0.00 | 85 | 1020.9 |
| 20260507071522 | 11 | 239 | 3.2 | 16.1 | 0.00 | 0.00 | 0.00 | 85 | 1020.9 |
| 20260507070019 | 11 | 238 | 3.2 | 14.5 | 0.00 | 0.00 | 0.00 | 85 | 1020.8 |
| 20260507064519 | 11 | 285 | 4.8 | 14.5 | 0.00 | 0.00 | 0.00 | 85 | 1020.8 |
| 20260507063019 | 11 | 257 | 4.8 | 16.1 | 0.00 | 0.00 | 0.00 | 85 | 1020.9 |
| 20260507061519 | 11 | 280 | 4.8 | 14.5 | 0.00 | 0.00 | 0.00 | 85 | 1020.8 |
| 20260507060021 | 11 | 279 | 3.2 | 17.7 | 0.00 | 0.00 | 0.00 | 85 | 1020.9 |
| 20260507054516 | 11 | 236 | 6.4 | 19.3 | 0.00 | 0.00 | 0.00 | 85 | 1020.7 |
| 20260507053016 | 11 | 315 | 6.4 | 17.7 | 0.00 | 0.00 | 0.00 | 85 | 1020.7 |
| 20260507051512 | 11 | 224 | 4.8 | 14.5 | 0.00 | 0.00 | 0.00 | 84 | 1020.7 |
| 20260507050012 | 11 | 286 | 6.4 | 22.5 | 0.00 | 0.00 | 0.00 | 84 | 1020.7 |
| 20260507044511 | 11 | 269 | 8.0 | 24.1 | 0.00 | 0.00 | 0.00 | 84 | 1020.6 |
| 20260507043010 | 11 | 271 | 6.4 | 30.6 | 0.00 | 0.00 | 0.00 | 83 | 1020.5 |
| 20260507041509 | 11 | 296 | 9.7 | 22.5 | 0.00 | 0.00 | 0.00 | 83 | 1020.2 |
| 20260507040008 | 11 | 257 | 6.4 | 22.5 | 0.00 | 0.00 | 0.00 | 83 | 1020.1 |
| 20260507034506 | 11 | 256 | 8.0 | 19.3 | 0.00 | 0.00 | 0.00 | 83 | 1019.9 |
| 20260507033006 | 12 | 296 | 8.0 | 24.1 | 0.00 | 0.00 | 0.00 | 82 | 1019.8 |
| 20260507031505 | 12 | 261 | 6.4 | 27.4 | 0.00 | 0.00 | 0.00 | 82 | 1019.6 |
| 20260507030004 | 12 | 284 | 4.8 | 24.1 | 0.00 | 0.00 | 0.00 | 81 | 1019.6 |
| 20260507024503 | 13 | 257 | 8.0 | 17.7 | 0.00 | 0.00 | 0.00 | 80 | 1019.4 |
| 20260507023002 | 13 | 234 | 4.8 | 16.1 | 0.00 | 0.00 | 0.00 | 79 | 1019.4 |
| 20260507021507 | 13 | 278 | 8.0 | 20.9 | 0.00 | 0.00 | 0.00 | 77 | 1019.5 |
| 20260507020104 | 14 | 291 | 8.0 | 25.7 | 0.00 | 0.00 | 0.00 | 76 | 1019.5 |
| 20260507014609 | 15 | 274 | 6.4 | 20.9 | 0.00 | 0.00 | 0.00 | 75 | 1019.6 |
| 20260507013059 | 15 | 241 | 3.2 | 16.1 | 0.00 | 0.00 | 0.00 | 74 | 1019.5 |
| 20260507011605 | 16 | 273 | 6.4 | 22.5 | 0.00 | 0.00 | 0.00 | 73 | 1019.5 |
| 20260507010059 | 16 | 302 | 8.0 | 24.1 | 0.00 | 0.00 | 0.00 | 72 | 1019.6 |
| 20260507004559 | 16 | 270 | 6.4 | 24.1 | 0.00 | 0.00 | 0.00 | 72 | 1019.6 |
| 20260507003057 | 17 | 262 | 9.7 | 24.1 | 0.00 | 0.00 | 0.00 | 69 | 1019.6 |
| 20260507001615 | 17 | 250 | 6.4 | 19.3 | 0.00 | 0.00 | 0.00 | 69 | 1019.6 |
| 20260507000101 | 17 | 309 | 8.0 | 24.1 | 0.00 | 0.00 | 0.00 | 68 | 1019.6 |
| 20260506234559 | 17 | 283 | 6.4 | 25.7 | 0.00 | 0.00 | 0.00 | 69 | 1019.6 |
| 20260506233055 | 18 | 30 | 4.8 | 17.7 | 0.00 | 0.00 | 0.00 | 68 | 1019.5 |
| 20260506231554 | 18 | 311 | 6.4 | 20.9 | 0.00 | 0.00 | 0.00 | 67 | 1019.6 |
| 20260506230053 | 19 | 239 | 4.8 | 19.3 | 0.00 | 0.00 | 0.00 | 67 | 1019.6 |
| 20260506224552 | 20 | 256 | 4.8 | 14.5 | 0.00 | 0.00 | 0.00 | 69 | 1019.7 |
| 20260506223053 | 21 | 263 | 4.8 | 8.0 | 0.00 | 0.00 | 0.00 | 66 | 1019.8 |
| 20260506221549 | 20 | 242 | 0.0 | 11.3 | 0.00 | 0.00 | 0.00 | 67 | 1019.8 |
| 20260506220058 | 20 | 231 | 0.0 | 3.2 | 0.00 | 0.00 | 0.00 | 71 | 1019.9 |
| 20260506214548 | 20 | 257 | 1.6 | 9.7 | 0.00 | 0.00 | 0.00 | 66 | 1020.0 |
| 20260506213045 | 20 | 140 | 0.0 | 9.7 | 0.00 | 0.00 | 0.00 | 71 | 1020.0 |
| 20260506211542 | 19 | 276 | 1.6 | 9.7 | 0.00 | 0.00 | 0.00 | 67 | 1020.1 |
| 20260506210041 | 19 | 317 | 3.2 | 8.0 | 0.00 | 0.00 | 0.00 | 68 | 1020.2 |
| 20260506204539 | 19 | 276 | 3.2 | 6.4 | 0.00 | 0.00 | 0.00 | 72 | 1020.3 |
| 20260506203102 | 18 | 187 | 1.6 | 6.4 | 0.00 | 0.00 | 0.00 | 72 | 1020.4 |
| 20260506201536 | 18 | 336 | 3.2 | 14.5 | 0.00 | 0.00 | 0.00 | 71 | 1020.5 |
| 20260506200044 | 18 | 151 | 3.2 | 11.3 | 0.00 | 0.00 | 0.00 | 73 | 1020.6 |
| 20260506194532 | 18 | 200 | 3.2 | 6.4 | 0.00 | 0.00 | 0.00 | 74 | 1020.5 |
| 20260506193029 | 17 | 198 | 1.6 | 12.9 | 0.00 | 0.00 | 0.00 | 76 | 1020.5 |
| 20260506191528 | 17 | 111 | 4.8 | 16.1 | 0.00 | 0.00 | 0.00 | 77 | 1020.5 |
| 20260506190033 | 16 | 163 | 3.2 | 14.5 | 0.00 | 0.00 | 0.00 | 81 | 1020.7 |
| 20260506184522 | 15 | 138 | 3.2 | 9.7 | 0.00 | 0.00 | 0.00 | 81 | 1020.7 |
| 20260506183019 | 15 | 146 | 4.8 | 16.1 | 0.00 | 0.00 | 0.00 | 81 | 1020.7 |
| 20260506181517 | 15 | 181 | 3.2 | 9.7 | 0.00 | 0.00 | 0.00 | 84 | 1020.7 |
| 20260506180016 | 15 | 158 | 4.8 | 11.3 | 0.00 | 0.00 | 0.00 | 83 | 1020.7 |
| 20260506174516 | 15 | 199 | 1.6 | 9.7 | 0.00 | 0.00 | 0.00 | 83 | 1020.4 |
| 20260506173011 | 13 | 182 | 1.6 | 8.0 | 0.00 | 0.00 | 0.00 | 86 | 1020.6 |
| 20260506171515 | 13 | 35 | 1.6 | 8.0 | 0.00 | 0.00 | 0.00 | 88 | 1020.8 |
| 20260506170009 | 12 | 129 | 3.2 | 6.4 | 0.00 | 0.00 | 0.00 | 88 | 1020.4 |
| 20260506164510 | 12 | 256 | 3.2 | 11.3 | 0.00 | 0.00 | 0.00 | 89 | 1020.7 |